Tracking 35275 objects as of 8-Sep-2026
HD Live streaming from Space Station
objects crossing your sky now

DELTA 2 R/B(1)


DELTA 2 R/B(1) is no longer on orbit


NORAD ID: 22780
Int'l Code: 1993-054B
Launch date: August 30, 1993
Source: United States (US)
Launch site: AIR FORCE EASTERN TEST RANGE (AFETR)
Decay date: 2002-04-05

Note: This is a ROCKET BODY
Your satellite tracking list
Your tracking list is empty




NASA's NSSDC Master Catalog

Two Line Element Set (TLE):
1 22780U 93054B   02095.23489864  .32963434 -18177-4  51981-3 0  9990
2 22780 022.0025 070.7693 0004413 343.5001 016.7319 16.48469496474203
Source of the keplerian elements: AFSPC